Regional Weather Roundup
Issued by NWS

Home | Current Version | Previous Version | Text Only | Print | Product List | Glossary On
Versions: 1 2 3 4 5 6 7 8 9 10 11 12 13 14 15 16 17 18 19 20 21 22 23 24 25 26 27 28 29 30 31 32 33 34 35 36 37 38 39 40 41 42 43 44 45 46 47 48 49 50
000
ASUS43 KBIS 290510
RWRND

NORTH DAKOTA REGIONAL WEATHER ROUNDUP
NATIONAL WEATHER SERVICE BISMARCK ND
1200 AM CDT SAT APR 29 2017

NOTE: "FAIR" INDICATES FEW OR NO CLOUDS BELOW 12,000 FEET WITH NO
SIGNIFICANT WEATHER AND/OR OBSTRUCTIONS TO VISIBILITY.


NDZ001>003-009>011-017-290600-
NORTHWEST NORTH DAKOTA

CITY           SKY/WX    TMP DP  RH WIND       PRES   REMARKS
WILLISTON      FAIR      45  29  53 S5        30.16R
MINOT          FAIR      41  22  46 SW9       30.18R
MINOT AFB      CLEAR     38  25  60 S3        30.17R
$$

NDZ018>021-031>035-040>046-290600-
SOUTHWEST NORTH DAKOTA

CITY           SKY/WX    TMP DP  RH WIND       PRES   REMARKS
BISMARCK       FAIR      38  22  52 CALM      30.21R
DICKINSON      FAIR      31  17  56 S8        30.17S
GARRISON         N/A     39  20  46 CALM      30.18R
HETTINGER ARPT PTCLDY    30  23  75 CALM      30.21R
$$

NDZ004>008-012>016-024-026-027-054-290600-
NORTHEAST NORTH DAKOTA

CITY           SKY/WX    TMP DP  RH WIND       PRES   REMARKS
GRAND FORKS    CLEAR     37  25  61 CALM      30.18R
GRND FRKS AFB  CLEAR     35  24  63 N5        30.19R
DEVILS LAKE    FAIR      38  27  64 CALM      30.20R
$$

NDZ022-023-025-028>030-036>039-047>053-290600-
SOUTHEAST NORTH DAKOTA

CITY           SKY/WX    TMP DP  RH WIND       PRES   REMARKS
FARGO          CLEAR     34  27  75 NW6       30.18R
JAMESTOWN      FAIR      35  29  78 CALM      30.18R
$$





USA.gov is the U.S. government's official web portal to all federal, state and local government web resources and services.